Terminal Aerodrome Forecast
Issued by NWS

Current Version | Previous Version | Graphics & Text | Print | Product List | Glossary On
Versions: 1 2 3 4 5 6 7 8 9 10 11 12 13 14 15 16 17 18 19
000
FTUS41 KILN 160139 AAA
TAFLCK
TAF AMD
KLCK 160139Z 1602/1624 31010KT P6SM BKN035
      TEMPO 1604/1608 SCT035
     FM161300 32008KT P6SM BKN040
     FM162000 32007KT P6SM FEW040=

USA.gov is the U.S. government's official web portal to all federal, state and local government web resources and services.